Time,TemperatureF,DewpointF,PressureIn,WindDirection,WindDirectionDegrees,WindSpeedMPH,WindSpeedGustMPH,Humidity,HourlyPrecipIn,Conditions,Clouds,dailyrainin,SolarRadiationWatts/m^2,SoftwareType,DateUTC
2013-02-13 00:00:00,28.0,22.0,-100.00,SW,225,2.0,-999.0,78,-99.99,,,-99.99,0.000000,,2013-02-13 05:00:00,
2013-02-13 00:42:00,28.0,22.0,-100.00,SW,225,2.0,-999.0,78,-99.99,,,-99.99,0.000000,,2013-02-13 05:42:00,
2013-02-13 00:52:00,28.0,22.0,-100.00,SW,225,2.0,-999.0,78,-99.99,,,-99.99,0.000000,,2013-02-13 05:52:00,
2013-02-13 01:00:00,27.0,22.0,-100.00,NNW,337,3.0,-999.0,81,-99.99,,,-99.99,0.000000,,2013-02-13 06:00:00,
2013-02-13 01:32:00,27.0,22.0,-100.00,NNW,337,3.0,-999.0,81,-99.99,,,-99.99,0.000000,,2013-02-13 06:32:00,
2013-02-13 01:42:00,27.0,22.0,-100.00,NNW,337,3.0,-999.0,81,-99.99,,,-99.99,0.000000,,2013-02-13 06:42:00,
2013-02-13 01:52:00,27.0,22.0,-100.00,NNW,337,3.0,-999.0,81,-99.99,,,-99.99,0.000000,,2013-02-13 06:52:00,
2013-02-13 02:00:00,27.0,22.0,-100.00,NW,315,5.0,-999.0,81,-99.99,,,-99.99,0.000000,,2013-02-13 07:00:00,
2013-02-13 02:42:00,27.0,22.0,-100.00,NW,315,5.0,-999.0,81,-99.99,,,-99.99,0.000000,,2013-02-13 07:42:00,
2013-02-13 02:52:00,27.0,22.0,-100.00,NW,315,5.0,-999.0,81,-99.99,,,-99.99,0.000000,,2013-02-13 07:52:00,
2013-02-13 03:00:00,25.0,21.0,-100.00,NW,315,2.0,-999.0,83,-99.99,,,-99.99,0.000000,,2013-02-13 08:00:00,
2013-02-13 03:43:00,25.0,21.0,-100.00,NW,315,2.0,-999.0,83,-99.99,,,-99.99,0.000000,,2013-02-13 08:43:00,
2013-02-13 03:52:00,25.0,21.0,-100.00,NW,315,2.0,-999.0,83,-99.99,,,-99.99,0.000000,,2013-02-13 08:52:00,
2013-02-13 04:00:00,23.0,20.0,-100.00,WNW,292,2.0,-999.0,86,-99.99,,,-99.99,0.000000,,2013-02-13 09:00:00,
2013-02-13 04:42:00,23.0,20.0,-100.00,WNW,292,2.0,-999.0,86,-99.99,,,-99.99,0.000000,,2013-02-13 09:42:00,
2013-02-13 04:52:00,23.0,20.0,-100.00,WNW,292,2.0,-999.0,86,-99.99,,,-99.99,0.000000,,2013-02-13 09:52:00,
2013-02-13 05:00:00,23.0,20.0,-100.00,NW,315,4.0,-999.0,87,-99.99,,,-99.99,0.000000,,2013-02-13 10:00:00,
2013-02-13 05:42:00,23.0,20.0,-100.00,NW,315,4.0,-999.0,87,-99.99,,,-99.99,0.000000,,2013-02-13 10:42:00,
2013-02-13 05:52:00,23.0,20.0,-100.00,NW,315,4.0,-999.0,87,-99.99,,,-99.99,0.000000,,2013-02-13 10:52:00,
2013-02-13 06:00:00,22.0,20.0,-100.00,NW,315,1.0,-999.0,88,-99.99,,,-99.99,0.000000,,2013-02-13 11:00:00,
2013-02-13 06:42:00,22.0,20.0,-100.00,NW,315,1.0,-999.0,88,-99.99,,,-99.99,0.000000,,2013-02-13 11:42:00,
2013-02-13 06:52:00,22.0,20.0,-100.00,NW,315,1.0,-999.0,88,-99.99,,,-99.99,0.000000,,2013-02-13 11:52:00,
2013-02-13 07:00:00,22.0,19.0,-100.00,WNW,292,2.0,-999.0,89,-99.99,,,-99.99,0.000000,,2013-02-13 12:00:00,
2013-02-13 07:42:00,22.0,19.0,-100.00,WNW,292,2.0,-999.0,89,-99.99,,,-99.99,0.000000,,2013-02-13 12:42:00,
2013-02-13 07:52:00,22.0,19.0,-100.00,WNW,292,2.0,-999.0,89,-99.99,,,-99.99,0.000000,,2013-02-13 12:52:00,
2013-02-13 08:00:00,22.0,19.0,-100.00,West,270,4.0,-999.0,89,-99.99,,,-99.99,3.480000,,2013-02-13 13:00:00,
2013-02-13 08:42:00,22.0,19.0,-100.00,West,270,4.0,-999.0,89,-99.99,,,-99.99,3.480000,,2013-02-13 13:42:00,
2013-02-13 08:52:00,22.0,19.0,-100.00,West,270,4.0,-999.0,89,-99.99,,,-99.99,3.480000,,2013-02-13 13:52:00,
2013-02-13 09:00:00,24.0,21.0,-100.00,WNW,292,6.0,-999.0,86,-99.99,,,-99.99,88.160004,,2013-02-13 14:00:00,
2013-02-13 09:42:00,24.0,21.0,-100.00,WNW,292,6.0,-999.0,86,-99.99,,,-99.99,88.160004,,2013-02-13 14:42:00,
2013-02-13 09:52:00,24.0,21.0,-100.00,WNW,292,6.0,-999.0,86,-99.99,,,-99.99,88.160004,,2013-02-13 14:52:00,
2013-02-13 10:00:00,28.0,23.0,-100.00,WNW,292,6.0,-999.0,78,-99.99,,,-99.99,249.399994,,2013-02-13 15:00:00,
2013-02-13 10:42:00,28.0,23.0,-100.00,WNW,292,6.0,-999.0,78,-99.99,,,-99.99,249.399994,,2013-02-13 15:42:00,
2013-02-13 10:52:00,28.0,23.0,-100.00,WNW,292,6.0,-999.0,78,-99.99,,,-99.99,249.399994,,2013-02-13 15:52:00,
2013-02-13 11:00:00,32.0,25.0,-100.00,NW,315,9.0,-999.0,74,-99.99,,,-99.99,397.880005,,2013-02-13 16:00:00,
2013-02-13 11:42:00,32.0,25.0,-100.00,NW,315,9.0,-999.0,74,-99.99,,,-99.99,397.880005,,2013-02-13 16:42:00,
2013-02-13 11:52:00,32.0,25.0,-100.00,NW,315,9.0,-999.0,74,-99.99,,,-99.99,397.880005,,2013-02-13 16:52:00,
2013-02-13 12:00:00,35.0,26.0,-100.00,NNW,337,8.0,-999.0,69,-99.99,,,-99.99,503.440002,,2013-02-13 17:00:00,
2013-02-13 12:42:00,35.0,26.0,-100.00,NNW,337,8.0,-999.0,69,-99.99,,,-99.99,503.440002,,2013-02-13 17:42:00,
2013-02-13 12:52:00,35.0,26.0,-100.00,NNW,337,8.0,-999.0,69,-99.99,,,-99.99,503.440002,,2013-02-13 17:52:00,
2013-02-13 13:00:00,38.0,27.0,-100.00,NW,315,9.0,-999.0,66,-99.99,,,-99.99,560.280029,,2013-02-13 18:00:00,
2013-02-13 13:42:00,38.0,27.0,-100.00,NW,315,9.0,-999.0,66,-99.99,,,-99.99,560.280029,,2013-02-13 18:42:00,
2013-02-13 13:52:00,38.0,27.0,-100.00,NW,315,9.0,-999.0,66,-99.99,,,-99.99,560.280029,,2013-02-13 18:52:00,
2013-02-13 14:00:00,40.0,28.0,-100.00,NNW,337,8.0,-999.0,63,-99.99,,,-99.99,559.119995,,2013-02-13 19:00:00,
2013-02-13 14:42:00,40.0,28.0,-100.00,NNW,337,8.0,-999.0,63,-99.99,,,-99.99,559.119995,,2013-02-13 19:42:00,
2013-02-13 14:52:00,40.0,28.0,-100.00,NNW,337,8.0,-999.0,63,-99.99,,,-99.99,559.119995,,2013-02-13 19:52:00,
2013-02-13 15:00:00,42.0,29.0,-100.00,NNW,337,9.0,-999.0,61,-99.99,,,-99.99,498.799988,,2013-02-13 20:00:00,
2013-02-13 15:42:00,42.0,29.0,-100.00,NNW,337,9.0,-999.0,61,-99.99,,,-99.99,498.799988,,2013-02-13 20:42:00,
2013-02-13 15:52:00,42.0,29.0,-100.00,NNW,337,9.0,-999.0,61,-99.99,,,-99.99,498.799988,,2013-02-13 20:52:00,
2013-02-13 16:00:00,44.0,29.0,-100.00,WNW,292,7.0,-999.0,56,-99.99,,,-99.99,388.600006,,2013-02-13 21:00:00,
2013-02-13 16:42:00,44.0,29.0,-100.00,WNW,292,7.0,-999.0,56,-99.99,,,-99.99,388.600006,,2013-02-13 21:42:00,
2013-02-13 16:52:00,44.0,29.0,-100.00,WNW,292,7.0,-999.0,56,-99.99,,,-99.99,388.600006,,2013-02-13 21:52:00,
2013-02-13 17:00:00,43.0,28.0,-100.00,ENE,67,6.0,-999.0,55,-99.99,,,-99.99,221.559998,,2013-02-13 22:00:00,
2013-02-13 17:42:00,43.0,28.0,-100.00,ENE,67,6.0,-999.0,55,-99.99,,,-99.99,221.559998,,2013-02-13 22:42:00,
2013-02-13 17:52:00,43.0,28.0,-100.00,ENE,67,6.0,-999.0,55,-99.99,,,-99.99,221.559998,,2013-02-13 22:52:00,
2013-02-13 18:00:00,41.0,28.0,-100.00,NNE,22,4.0,-999.0,59,-99.99,,,-99.99,71.919998,,2013-02-13 23:00:00,
2013-02-13 18:42:00,41.0,28.0,-100.00,NNE,22,4.0,-999.0,59,-99.99,,,-99.99,71.919998,,2013-02-13 23:42:00,
2013-02-13 18:52:00,41.0,28.0,-100.00,NNE,22,4.0,-999.0,59,-99.99,,,-99.99,71.919998,,2013-02-13 23:52:00,
2013-02-13 19:00:00,38.0,27.0,-100.00,SW,225,3.0,-999.0,65,-99.99,,,-99.99,3.480000,,2013-02-14 00:00:00,
2013-02-13 19:42:00,38.0,27.0,-100.00,SW,225,3.0,-999.0,65,-99.99,,,-99.99,3.480000,,2013-02-14 00:42:00,
2013-02-13 19:52:00,38.0,27.0,-100.00,SW,225,3.0,-999.0,65,-99.99,,,-99.99,3.480000,,2013-02-14 00:52:00,
2013-02-13 21:00:00,34.0,27.0,-100.00,NNW,337,3.0,-999.0,74,-99.99,,,-99.99,0.000000,,2013-02-14 02:00:00,
2013-02-13 22:00:00,33.0,27.0,-100.00,NNW,337,2.0,-999.0,79,-99.99,,,-99.99,0.000000,,2013-02-14 03:00:00,
2013-02-13 22:42:00,33.0,27.0,-100.00,NNW,337,2.0,-999.0,79,-99.99,,,-99.99,0.000000,,2013-02-14 03:42:00,
2013-02-13 22:52:00,33.0,27.0,-100.00,NNW,337,2.0,-999.0,79,-99.99,,,-99.99,0.000000,,2013-02-14 03:52:00,
2013-02-13 23:00:00,32.0,28.0,-100.00,NNW,337,3.0,-999.0,85,-99.99,,,-99.99,0.000000,,2013-02-14 04:00:00,
2013-02-13 23:42:00,32.0,28.0,-100.00,NNW,337,3.0,-999.0,85,-99.99,,,-99.99,0.000000,,2013-02-14 04:42:00,
2013-02-13 23:52:00,32.0,28.0,-100.00,NNW,337,3.0,-999.0,85,-99.99,,,-99.99,0.000000,,2013-02-14 04:52:00,